Simultaneous Nadir Overpasses (SNOs) Predictions

Prediction of SNOs between LANDSAT-8 and METOP-B Satellite Orbit:

Table of predicted SNOs for the next 14.0 days since TLE Epoch: 4/6/2024
Index Date (LANDSAT-8) Time (LANDSAT-8) Lat,Lon (LANDSAT-8) SZA (LANDSAT-8 ) Date (METOP-B) Time (METOP-B) Lat,Lon (METOP-B) SZA (METOP-B ) Distance(km) Time Diff (sec)
1 04/06/2024 07:00:00 -81.31, -62.52 103.13 04/06/2024 06:58:57 -81.31, -62.37 103.14 2.51 63
2 04/06/2024 07:49:26 81.32, 105.24 76.88 04/06/2024 07:49:37 81.32, 105.31 76.89 1.11 11
3 04/09/2024 02:34:15 -81.30, 3.75 104.18 04/09/2024 02:33:19 -81.31, 3.87 104.19 2.07 56
4 04/09/2024 03:23:40 81.33, 171.86 75.88 04/09/2024 03:23:58 81.32, 171.93 75.89 1.19 18
5 04/11/2024 22:08:28 -81.31, 70.24 105.18 04/11/2024 22:07:40 -81.30, 70.05 105.23 3.16 48
6 04/11/2024 22:57:53 81.33,-121.68 74.87 04/11/2024 22:58:18 81.33,-121.52 74.90 2.74 25
7 04/14/2024 17:42:41 -81.32, 136.94 106.14 04/14/2024 17:42:00 -81.32, 136.94 106.16 0.64 41
8 04/14/2024 18:32:07 81.32, -55.39 73.86 04/14/2024 18:32:40 81.32, -55.42 73.87 0.49 33
9 04/17/2024 13:16:55 -81.31,-156.91 107.16 04/17/2024 13:16:22 -81.31,-157.01 107.18 1.58 33



Historial Predications of SNOs between LANDSAT-8 and METOP-B
